Location: Dziadowski
(50.3833°N, 20.0333°E)
Time: 22:00:09
(UTC+00:00)

Cosmos 2084 - Pass Details

Date: 18 January 2026
Orbit: 536 x 564 km, 62.8° (Epoch: 17 February)

Event Time Altitude Azimuth Distance (km) Brightness Sun altitude
Exits shadow 04:30:27 30° 334° (NNW) 1,025 4.4 -18.8°
Drops below altitude 10° 04:33:58 10° 32° (NNE) 1,840 6.3 -18.2°
Sets 04:36:24 0° 44° (NE) 2,732 7.3 -17.8°
